Randolph AFB, TX

4:55 PM CDT on April 30, 2017 (GMT -0500)
Randolph Air Force Base

Weather History for KRND - December, 2011

Change the Weather History Date:

Tuesday, December 13, 2011

  Actual Average Record
Temperature  
Mean Temperature 65 °F -  
Max Temperature 71 °F 61 °F 78 °F (1996)
Min Temperature 59 °F 39 °F 21 °F (1997)
Growing Degree Days 15 (Base 50)    
Moisture  
Dew Point 63 °F    
Average Humidity 97    
Maximum Humidity 100    
Minimum Humidity 86    
Precipitation  
Precipitation 0.02 in - - ()
Sea Level Pressure  
Sea Level Pressure 30.15 in    
Wind  
Wind Speed 10 mph (SE)    
Max Wind Speed 17 mph    
Max Gust Speed 22 mph    
Visibility 5 miles    
Events Fog , Rain    
Averages and records for this station are not official NWS values.
T = Trace of Precipitation, MM = Missing Value Source: NWS Daily Summary

Daily Weather History Graph

Daily Weather History Graph

Search for Another Location

Airport or City:

Trip Planner

Search our weather history database for the weather conditions in past years. The results will help you decide how hot, cold, wet, or windy it might be!

Date:

Astronomy

Dec. 13, 2011 Rise Set
Actual Time 7:18 AM CST 5:35 PM CST
Civil Twilight 6:52 AM CST 6:01 PM CST
Nautical Twilight 6:23 AM CST 6:31 PM CST
Astronomical Twilight 5:54 AM CST 7:00 PM CST
Moon 8:43 PM CST (12/13) 9:37 AM CST (12/13)
Length of Visible Light 11h 08m
Length of Day
10h 16m
Waning Gibbous, 90% of the Moon is Illuminated
Dec 13
Waning Gibbous
Dec 17
Last Quarter
Dec 24
New
Jan 1
First Quarter
Jan 9
Full

Hourly Weather History & Observations

Time (CST) Temp. Dew Point Humidity Pressure Visibility Wind Dir Wind Speed Gust Speed Precip Events Conditions
12:18 AM 60.8 °F 59.0 °F 94% 30.21 in 10.0 mi ESE 10.4 mph - N/A   Overcast
12:55 AM 60.6 °F 59.5 °F 96% 30.19 in 10.0 mi ESE 11.5 mph - N/A   Overcast
1:05 AM 60.8 °F 59.0 °F 94% 30.19 in 10.0 mi ESE 11.5 mph - N/A   Overcast
1:18 AM 60.8 °F 59.0 °F 94% 30.19 in 10.0 mi SE 9.2 mph - N/A   Overcast
1:55 AM 60.4 °F 59.9 °F 98% 30.18 in 10.0 mi SE 10.4 mph - N/A   Overcast
2:18 AM 60.8 °F 60.8 °F 100% 30.18 in 9.0 mi SE 9.2 mph - N/A   Overcast
2:51 AM 60.8 °F 60.8 °F 100% 30.18 in 7.0 mi ESE 8.1 mph - N/A   Overcast
2:55 AM 60.4 °F 60.1 °F 99% 30.18 in 7.0 mi ESE 6.9 mph - N/A   Overcast
3:27 AM 60.8 °F 60.8 °F 100% 30.18 in 6.0 mi ESE 8.1 mph - N/A   Overcast
3:42 AM 60.8 °F 59.0 °F 94% 30.18 in 4.0 mi ESE 9.2 mph - N/A   Overcast
3:45 AM 60.8 °F 59.0 °F 94% 30.18 in 4.0 mi ESE 8.1 mph - N/A   Overcast
3:51 AM 60.8 °F 59.0 °F 94% 30.18 in 3.0 mi ESE 9.2 mph - N/A   Overcast
3:54 AM 60.8 °F 59.0 °F 94% 30.18 in 2.5 mi ESE 8.1 mph - N/A   Overcast
3:57 AM 60.8 °F 59.0 °F 94% 30.18 in 2.5 mi ESE 9.2 mph - N/A   Overcast
4:08 AM 60.8 °F 59.0 °F 94% 30.17 in 1.8 mi ESE 10.4 mph - N/A   Overcast
4:19 AM 60.8 °F 59.0 °F 94% 30.17 in 1.5 mi ESE 11.5 mph - N/A   Overcast
4:20 AM 60.8 °F 59.0 °F 94% 30.17 in 1.5 mi SE 11.5 mph - N/A   Overcast
4:24 AM 60.8 °F 59.0 °F 94% 30.17 in 1.2 mi ESE 11.5 mph - N/A   Overcast
4:28 AM 60.8 °F 59.0 °F 94% 30.17 in 1.0 mi ESE 11.5 mph - N/A   Mist
4:32 AM 60.8 °F 59.0 °F 94% 30.17 in 1.0 mi ESE 10.4 mph - N/A   Mist
4:36 AM 60.8 °F 59.0 °F 94% 30.17 in 0.8 mi SE 10.4 mph - N/A   Mist
4:50 AM 60.8 °F 59.0 °F 94% 30.16 in 0.8 mi ESE 8.1 mph - N/A   Mist
4:51 AM 59.0 °F 59.0 °F 100% 30.16 in 0.8 mi ESE 6.9 mph - N/A   Mist
4:55 AM 59.9 °F 59.5 °F 99% 30.16 in 0.8 mi ESE 9.2 mph - N/A   Mist
5:15 AM 60.8 °F 59.0 °F 94% 30.16 in 0.8 mi ESE 12.7 mph - N/A   Mist
5:27 AM 60.8 °F 60.8 °F 100% 30.16 in 0.8 mi ESE 10.4 mph - N/A   Mist
5:39 AM 60.8 °F 60.8 °F 100% 30.16 in 0.5 mi SE 12.7 mph - N/A Fog Fog
5:42 AM 60.8 °F 60.8 °F 100% 30.16 in 0.5 mi SE 12.7 mph - N/A Fog Fog
5:55 AM 59.9 °F 59.9 °F 100% 30.16 in 0.5 mi SE 10.4 mph - N/A Fog Fog
6:01 AM 60.8 °F 60.8 °F 100% 30.16 in 0.5 mi SE 10.4 mph - N/A Fog Fog
6:22 AM 60.8 °F 60.8 °F 100% 30.16 in 0.5 mi ESE 8.1 mph - N/A Fog Fog
6:24 AM 60.8 °F 60.8 °F 100% 30.16 in 0.5 mi East 8.1 mph - N/A Fog Fog
6:25 AM 60.8 °F 60.8 °F 100% 30.16 in 0.5 mi ESE 9.2 mph - N/A Fog Fog
6:26 AM 60.8 °F 60.8 °F 100% 30.16 in 0.8 mi East 8.1 mph - N/A   Mist
6:32 AM 60.8 °F 60.8 °F 100% 30.17 in 0.8 mi ESE 9.2 mph - N/A   Mist
6:36 AM 60.8 °F 60.8 °F 100% 30.17 in 0.8 mi ESE 5.8 mph - N/A   Mist
6:37 AM 60.8 °F 60.8 °F 100% 30.17 in 0.5 mi ESE 6.9 mph - N/A Fog Fog
6:43 AM 60.8 °F 60.8 °F 100% 30.17 in 0.5 mi ESE 6.9 mph - N/A Fog Fog
6:53 AM 60.8 °F 60.8 °F 100% 30.18 in 0.5 mi ESE 6.9 mph - N/A Fog Fog
6:55 AM 59.9 °F 59.9 °F 100% 30.17 in 0.5 mi ESE 5.8 mph - N/A Fog Fog
7:03 AM 60.8 °F 60.8 °F 100% 30.18 in 0.5 mi ESE 5.8 mph - N/A Fog Fog
7:10 AM 60.8 °F 60.8 °F 100% 30.18 in 0.4 mi East 5.8 mph - N/A Fog Fog
7:23 AM 60.8 °F 60.8 °F 100% 30.18 in 0.2 mi ESE 9.2 mph - N/A Fog Fog
7:31 AM 60.8 °F 60.8 °F 100% 30.17 in 0.2 mi ESE 10.4 mph - N/A Fog Fog
7:55 AM 60.4 °F 60.4 °F 100% 30.18 in 0.2 mi ESE 9.2 mph - N/A Fog Fog
8:17 AM 60.8 °F 60.8 °F 100% 30.19 in 0.2 mi SE 6.9 mph - N/A Fog Fog
8:34 AM 60.8 °F 60.8 °F 100% 30.20 in 0.2 mi ESE 10.4 mph - N/A Fog Fog
8:55 AM 61.3 °F 61.3 °F 100% 30.20 in 0.2 mi ESE 5.8 mph - N/A Fog Fog
9:01 AM 60.8 °F 60.8 °F 100% 30.20 in 0.2 mi ESE 6.9 mph - N/A Fog Fog
9:25 AM 62.6 °F 62.6 °F 100% 30.21 in 0.2 mi ESE 4.6 mph - N/A Fog Fog
9:55 AM 62.2 °F 62.2 °F 100% 30.22 in 0.2 mi ESE 5.8 mph - N/A Fog Fog
10:05 AM 62.6 °F 62.6 °F 100% 30.21 in 0.2 mi ESE 8.1 mph - N/A Fog Fog
10:09 AM 62.6 °F 62.6 °F 100% 30.21 in 0.2 mi ESE 6.9 mph - N/A Fog Fog
10:34 AM 62.6 °F 62.6 °F 100% 30.21 in 0.2 mi ESE 5.8 mph - N/A Fog Light Drizzle
10:39 AM 62.6 °F 62.6 °F 100% 30.21 in 0.2 mi ESE 6.9 mph - N/A Fog Fog
10:55 AM 63.5 °F 63.5 °F 100% 30.20 in 0.2 mi ESE 9.2 mph - 0.00 in Fog Fog
10:58 AM 64.4 °F 64.4 °F 100% 30.20 in 0.5 mi ESE 11.5 mph - N/A   Light Drizzle
11:04 AM 62.6 °F 62.6 °F 100% 30.20 in 0.8 mi SE 10.4 mph - N/A Rain Light Rain
11:13 AM 64.4 °F 64.4 °F 100% 30.20 in 1.5 mi SE 9.2 mph - N/A Rain Light Rain
11:22 AM 64.4 °F 64.4 °F 100% 30.20 in 0.8 mi SE 9.2 mph - N/A   Overcast
11:55 AM 64.8 °F 64.8 °F 100% 30.18 in 0.8 mi ESE 10.4 mph - 0.01 in   Mist
12:14 PM 64.4 °F 64.4 °F 100% 30.17 in 1.2 mi SE 10.4 mph - N/A   Overcast
12:16 PM 64.4 °F 64.4 °F 100% 30.17 in 1.5 mi SE 11.5 mph - N/A   Overcast
12:22 PM 66.2 °F 66.2 °F 100% 30.16 in 2.0 mi SE 10.4 mph - N/A   Overcast
12:32 PM 66.2 °F 66.2 °F 100% 30.16 in 3.0 mi SSE 10.4 mph - N/A   Overcast
12:46 PM 66.2 °F 66.2 °F 100% 30.15 in 6.0 mi SE 10.4 mph - N/A   Overcast
12:55 PM 66.2 °F 66.2 °F 100% 30.15 in 6.0 mi SSE 8.1 mph - N/A   Overcast
1:11 PM 66.2 °F 66.2 °F 100% 30.14 in 10.0 mi SSE 10.4 mph - N/A   Overcast
1:19 PM 66.2 °F 66.2 °F 100% 30.14 in 5.0 mi SSE 11.5 mph - N/A   Overcast
1:55 PM 67.3 °F 67.3 °F 100% 30.11 in 5.0 mi SSE 11.5 mph - N/A   Overcast
2:08 PM 68.0 °F 68.0 °F 100% 30.11 in 6.0 mi SSE 8.1 mph - N/A   Overcast
2:28 PM 68.0 °F 68.0 °F 100% 30.10 in 7.0 mi SE 9.2 mph - N/A   Overcast
2:55 PM 69.3 °F 69.1 °F 99% 30.09 in 7.0 mi SSE 9.2 mph - N/A   Overcast
3:06 PM 69.8 °F 69.8 °F 100% 30.09 in 10.0 mi SSE 10.4 mph - N/A   Overcast
3:07 PM 69.8 °F 69.8 °F 100% 30.09 in 10.0 mi SSE 12.7 mph - N/A   Overcast
3:16 PM 69.8 °F 68.0 °F 94% 30.08 in 7.0 mi SE 12.7 mph - N/A   Overcast
3:22 PM 69.8 °F 68.0 °F 94% 30.08 in 10.0 mi SE 11.5 mph - N/A   Overcast
3:54 PM 71.6 °F 68.0 °F 88% 30.07 in 10.0 mi SE 11.5 mph 20.7 mph N/A   Mostly Cloudy
3:55 PM 71.6 °F 68.0 °F 88% 30.07 in 7.0 mi SE 12.7 mph 20.7 mph 0.01 in   Overcast
4:10 PM 71.6 °F 68.0 °F 88% 30.06 in 10.0 mi SE 13.8 mph - N/A   Overcast
4:55 PM 71.6 °F 67.3 °F 86% 30.07 in 10.0 mi SE 8.1 mph - N/A   Overcast
5:36 PM 71.6 °F 68.0 °F 88% 30.07 in 10.0 mi SE 10.4 mph - N/A   Overcast
5:55 PM 71.1 °F 67.3 °F 88% 30.07 in 10.0 mi SE 12.7 mph - N/A   Overcast
6:55 PM 69.8 °F 66.0 °F 88% 30.08 in 10.0 mi SSE 15.0 mph - N/A   Mostly Cloudy
7:03 PM 69.8 °F 66.2 °F 88% 30.07 in 10.0 mi SE 13.8 mph - N/A   Mostly Cloudy
7:29 PM 69.8 °F 66.2 °F 88% 30.08 in 10.0 mi SSE 16.1 mph - N/A   Overcast
7:55 PM 69.6 °F 66.9 °F 91% 30.09 in 10.0 mi SSE 12.7 mph - N/A   Overcast
7:58 PM 69.8 °F 66.2 °F 88% 30.09 in 10.0 mi SSE 13.8 mph - N/A   Overcast
7:59 PM 69.8 °F 66.2 °F 88% 30.09 in 10.0 mi SSE 12.7 mph - N/A   Overcast
8:55 PM 69.6 °F 67.3 °F 92% 30.09 in 10.0 mi SSE 15.0 mph - N/A   Overcast
9:48 PM 69.8 °F 68.0 °F 94% 30.09 in 10.0 mi SSE 15.0 mph - N/A   Overcast
9:51 PM 69.8 °F 68.0 °F 94% 30.09 in 10.0 mi SSE 12.7 mph - N/A Rain Light Rain
9:55 PM 69.3 °F 67.5 °F 94% 30.09 in 10.0 mi SSE 17.3 mph 21.9 mph 0.00 in Rain Light Rain
10:00 PM 69.8 °F 68.0 °F 94% 30.09 in 10.0 mi SE 16.1 mph 21.9 mph N/A   Overcast
10:04 PM 69.8 °F 68.0 °F 94% 30.09 in 10.0 mi SSE 15.0 mph 21.9 mph N/A   Overcast
10:48 PM 68.0 °F 68.0 °F 100% 30.09 in 10.0 mi SE 15.0 mph - N/A   Overcast
10:54 PM 68.0 °F 68.0 °F 100% 30.09 in 10.0 mi SE 13.8 mph - N/A   Light Drizzle
11:06 PM 68.0 °F 68.0 °F 100% 30.08 in 9.0 mi SE 15.0 mph - N/A   Overcast
11:16 PM 68.0 °F 68.0 °F 100% 30.08 in 8.0 mi SE 13.8 mph - N/A   Light Drizzle
11:19 PM 68.0 °F 68.0 °F 100% 30.08 in 8.0 mi SE 12.7 mph - N/A   Light Drizzle
11:31 PM 68.0 °F 68.0 °F 100% 30.07 in 10.0 mi SE 16.1 mph - N/A   Overcast
11:42 PM 68.0 °F 68.0 °F 100% 30.07 in 10.0 mi SE 13.8 mph - N/A   Overcast
11:46 PM 68.0 °F 68.0 °F 100% 30.07 in 10.0 mi SE 16.1 mph - N/A   Light Drizzle
11:55 PM 68.2 °F 67.8 °F 99% 30.07 in 10.0 mi SE 16.1 mph - 0.00 in   Overcast